Flag for Germany Weather past 2 weeks in Neunkirchen (Saar), Saarland, Germany

Now
61 °F

Clear.


Feels Like: 61 °F
Forecast: 57 / 75 °F
Wind: 6 mph from Northeast

Location: Saarbruecken / Ensheim

Current Time: Jul 25, 2014 at 1:15:39 AM

Latest Report: Jul 25, 2014 at 12:20 AM


Visibility: 10 mi

Pressure: 29.95 "Hg

Humidity: 83%

Dew point: 55 °F

Location of Neunkirchen (Saar)Location

Historic Weather in Neunkirchen (Saar) — Graph

°F

Neunkirchen (Saar) temperature yesterday

Maximum temperature yesterday: 79 °F (at 12:50 PM)
Minimum temperature yesterday: 61 °F (at 11:20 PM)
Average temperature yesterday: 71 °F

Past Weeks' High & Low Weather Summary

 TemperatureHumidityPressure
High90 °F (Jul 18, 5:20 PM)100% (Jul 10, 12:50 AM)30.21 "Hg (Jul 10, 12:50 AM)
Low54 °F (Jul 10, 12:20 AM)27% (Jul 18, 6:20 PM)29.71 "Hg (Jul 10, 3:20 AM)
Average69 °F70%29.98 "Hg
* Reported Jul 10 12:20 AM — Jul 25 12:20 AM, Neunkirchen (Saar), Weather by CustomWeather, © 2014

Note: Actual official high and low records may vary slightly from our data, if they occured in-between our weather recording intervals... More about our weather records

Advertising

Neunkirchen (Saar) weather history for previous 24 hours

 ConditionsComfort  
Time TempWeatherWind HumidityBarometerVisibility
12:20 AM
Jul 25
61 °FClear.6 mph83%29.95 "Hg10 mi
11:50 PM
Jul 24
61 °FLight rain. Passing clouds.5 mph88%29.95 "HgN/A
11:20 PM61 °FThundershowers. Passing clouds.8 mph88%29.95 "HgN/A
10:50 PM63 °FThunderstorms. Passing clouds.6 mph77%29.98 "HgN/A
10:20 PM63 °FThundershowers. Partly sunny.5 mph77%29.98 "HgN/A
9:50 PM63 °FThundershowers. Partly sunny.7 mph73%29.95 "HgN/A
9:20 PM66 °FThundershowers. Partly sunny.5 mph64%29.95 "HgN/A
8:50 PM68 °FScattered showers. Partly sunny.10 mph53%29.92 "HgN/A
8:20 PM68 °FScattered clouds.15 mph53%29.92 "HgN/A
7:50 PM70 °FScattered clouds.18 mph50%29.92 "HgN/A
7:20 PM73 °FScattered clouds.18 mph44%29.92 "HgN/A
6:50 PM77 °FScattered clouds.6 mph39%29.89 "HgN/A
6:20 PM79 °FSunny.6 mph39%29.89 "Hg10 mi
5:50 PM79 °FPassing clouds.3 mph32%29.89 "HgN/A
5:20 PM79 °FPassing clouds.8 mph37%29.89 "HgN/A
4:50 PM79 °FPassing clouds.6 mph34%29.92 "HgN/A
4:20 PM77 °FPassing clouds.8 mph39%29.92 "HgN/A
3:50 PM77 °FPassing clouds.5 mph39%29.92 "HgN/A
3:20 PM79 °FPassing clouds.9 mph37%29.92 "HgN/A
2:50 PM79 °FPassing clouds.9 mph39%29.92 "HgN/A
2:20 PM79 °FSunny.6 mph37%29.92 "Hg10 mi
1:50 PM77 °FPassing clouds.7 mph34%29.92 "HgN/A
1:20 PM77 °FPassing clouds.9 mph34%29.95 "HgN/A
12:50 PM79 °FPassing clouds.9 mph37%29.95 "HgN/A
12:20 PM77 °FPassing clouds.8 mph44%29.95 "HgN/A
11:50 AM77 °FPassing clouds.8 mph44%29.95 "HgN/A
11:20 AM75 °FPassing clouds.9 mph50%29.95 "HgN/A
10:50 AM73 °FPassing clouds.8 mph53%29.95 "HgN/A
10:20 AM73 °FPassing clouds.9 mph53%29.95 "HgN/A
9:50 AM72 °FPassing clouds.7 mph57%29.95 "HgN/A
9:20 AM70 °FPassing clouds.9 mph57%29.95 "HgN/A
8:50 AM70 °FPassing clouds.10 mph60%29.95 "HgN/A
8:20 AM68 °FPassing clouds.14 mph60%29.95 "HgN/A
7:50 AM66 °FSunny.9 mph64%29.95 "Hg10 mi
7:20 AM66 °FPassing clouds.9 mph68%29.92 "HgN/A
6:50 AM64 °FPassing clouds.10 mph68%29.92 "HgN/A
6:20 AM64 °FClear.12 mph68%29.92 "Hg10 mi
5:50 AM64 °FClear.13 mph68%29.92 "Hg10 mi
5:20 AM64 °FPassing clouds.10 mph68%29.92 "HgN/A
4:50 AM64 °FClear.9 mph68%29.92 "Hg10 mi
4:20 AM64 °FClear.9 mph73%29.92 "Hg10 mi
3:50 AM66 °FClear.12 mph68%29.92 "Hg10 mi
3:20 AM66 °FClear.10 mph68%29.95 "Hg10 mi
2:50 AM68 °FClear.10 mph64%29.95 "Hg10 mi
2:20 AM68 °FClear.9 mph64%29.95 "Hg10 mi
1:50 AM68 °FClear.10 mph64%29.95 "Hg10 mi
1:20 AM68 °FPassing clouds.10 mph64%29.95 "HgN/A
Weather by CustomWeather, © 2014

See weather overviewHow to use our weather pages